When you browse on this site, cookies collect data to enhance your experience and personalize the content and advertising you see.
Visit our Privacy Policy to learn more. By continuing to use the site, you agree to this use of cookies and data.
  • In Hungary
  • List of Countries
  • For 7 days
  • Water Temperature
  • Satellite Maps
  • Weather Map
  • News
  • Weather Widgets
  • user-avatar
    Login

    Hourly Weather Chamalieres

    Today, 21 March, Thursday

    Time Temperature Precipitation Wind Pressure Humidity
    00:00 +3°C° 0 mm 1 mps 735 mmHg 89%
    01:00 +3°C° 0 mm 1 mps 735 mmHg 89%
    02:00 +2°C° 0 mm 1 mps 735 mmHg 89%
    03:00 +2°C° 0 mm 1 mps 735 mmHg 90%
    04:00 +2°C° 0 mm 1 mps 735 mmHg 90%
    05:00 +2°C° 0 mm 1 mps 735 mmHg 89%
    06:00 +2°C° 0 mm 1 mps 735 mmHg 89%
    07:00 +4°C° 0 mm 1 mps 735 mmHg 75%
    08:00 +6°C° 0 mm 2 mps 735 mmHg 62%
    09:00 +8°C° 0 mm 2 mps 735 mmHg 48%
    10:00 +10°C° 0 mm 2 mps 735 mmHg 44%
    11:00 +12°C° 0 mm 2 mps 735 mmHg 40%
    12:00 +14°C° 0 mm 2 mps 734 mmHg 36%
    13:00 +14°C° 0 mm 2 mps 734 mmHg 37%
    14:00 +14°C° 0 mm 2 mps 734 mmHg 38%
    15:00 +15°C° 0 mm 2 mps 734 mmHg 39%
    16:00 +13°C° 0 mm 2 mps 733 mmHg 47%
    17:00 +10°C° 0 mm 1 mps 733 mmHg 55%
    18:00 +8°C° 0 mm 1 mps 733 mmHg 63%
    19:00 +7°C° 0 mm 1 mps 733 mmHg 66%
    20:00 +6°C° 0 mm 1 mps 734 mmHg 69%
    21:00 +6°C° 0 mm 1 mps 734 mmHg 72%
    22:00 +5°C° 0 mm 1 mps 734 mmHg 72%
    23:00 +5°C° 0 mm 1 mps 734 mmHg 72%

    Tomorrow, 22 March, Friday

    Time Temperature Precipitation Wind Pressure Humidity
    00:00 +5°C° 0 mm 1 mps 734 mmHg 72%
    01:00 +5°C° 0 mm 1 mps 734 mmHg 72%
    02:00 +5°C° 0 mm 1 mps 734 mmHg 71%
    03:00 +4°C° 0 mm 2 mps 734 mmHg 70%
    04:00 +5°C° 0 mm 1 mps 734 mmHg 69%
    05:00 +5°C° 0 mm 1 mps 734 mmHg 68%
    06:00 +5°C° 0 mm 1 mps 735 mmHg 67%
    07:00 +8°C° 0 mm 1 mps 735 mmHg 57%
    08:00 +12°C° 0 mm 1 mps 735 mmHg 47%
    09:00 +15°C° 0 mm 1 mps 735 mmHg 37%
    10:00 +16°C° 0 mm 0 mps 735 mmHg 33%
    11:00 +18°C° 0 mm 0 mps 735 mmHg 29%
    12:00 +20°C° 0 mm 0 mps 735 mmHg 25%
    13:00 +20°C° 0 mm 0 mps 734 mmHg 26%
    14:00 +21°C° 0 mm 1 mps 734 mmHg 26%
    15:00 +21°C° 0 mm 1 mps 734 mmHg 27%
    16:00 +19°C° 0 mm 1 mps 734 mmHg 37%
    17:00 +15°C° 0 mm 1 mps 733 mmHg 47%
    18:00 +12°C° 0 mm 1 mps 733 mmHg 57%
    19:00 +11°C° 0 mm 1 mps 734 mmHg 65%
    20:00 +10°C° 0 mm 1 mps 734 mmHg 72%
    21:00 +7°C° 0 mm 0 mps 734 mmHg 79%
    22:00 +7°C° 0 mm 0 mps 734 mmHg 79%
    23:00 +8°C° 0 mm 1 mps 734 mmHg 79%

    Day after tomorrow, 23 March, Saturday

    Time Temperature Precipitation Wind Pressure Humidity
    00:00 +8°C° 0 mm 1 mps 734 mmHg 79%
    01:00 +7°C° 0 mm 1 mps 734 mmHg 78%
    02:00 +7°C° 0 mm 1 mps 734 mmHg 76%
    03:00 +7°C° 0 mm 1 mps 734 mmHg 75%
    04:00 +7°C° 0 mm 1 mps 734 mmHg 75%
    05:00 +6°C° 0 mm 1 mps 734 mmHg 75%
    06:00 +5°C° 0 mm 0 mps 734 mmHg 75%
    07:00 +9°C° 0 mm 1 mps 734 mmHg 66%
    08:00 +12°C° 0 mm 1 mps 734 mmHg 58%
    09:00 +15°C° 0 mm 1 mps 734 mmHg 50%
    10:00 +16°C° 0 mm 1 mps 734 mmHg 47%
    11:00 +17°C° 0 mm 2 mps 734 mmHg 45%
    12:00 +18°C° 0 mm 2 mps 733 mmHg 43%
    13:00 +18°C° 0 mm 2 mps 733 mmHg 42%
    14:00 +18°C° 0 mm 2 mps 732 mmHg 42%
    15:00 +18°C° 0 mm 2 mps 732 mmHg 42%
    16:00 +16°C° 0 mm 2 mps 732 mmHg 51%
    17:00 +14°C° 0 mm 2 mps 732 mmHg 60%
    18:00 +12°C° 0 mm 2 mps 732 mmHg 69%
    19:00 +11°C° 0 mm 1 mps 732 mmHg 75%
    20:00 +9°C° 0 mm 1 mps 732 mmHg 82%
    21:00 +7°C° 0 mm 0 mps 733 mmHg 88%
    22:00 +7°C° 0 mm 0 mps 733 mmHg 89%
    23:00 +6°C° 0 mm 0 mps 732 mmHg 90%

    24 March, Sunday

    Time Temperature Precipitation Wind Pressure Humidity
    00:00 +7°C° 0 mm 1 mps 732 mmHg 90%
    01:00 +7°C° 0 mm 1 mps 732 mmHg 90%
    02:00 +7°C° 0 mm 1 mps 732 mmHg 89%
    03:00 +7°C° 0 mm 1 mps 732 mmHg 88%
    04:00 +6°C° 0 mm 1 mps 732 mmHg 88%
    05:00 +6°C° 0 mm 1 mps 732 mmHg 87%
    06:00 +6°C° 0 mm 1 mps 732 mmHg 86%
    07:00 +9°C° 0 mm 1 mps 732 mmHg 77%
    08:00 +12°C° 0 mm 1 mps 733 mmHg 67%
    09:00 +14°C° 0 mm 1 mps 733 mmHg 57%
    10:00 +16°C° 0 mm 1 mps 733 mmHg 53%
    11:00 +18°C° 0 mm 1 mps 733 mmHg 49%
    12:00 +18°C° 0 mm 2 mps 732 mmHg 46%
    13:00 +18°C° 0 mm 2 mps 732 mmHg 46%
    14:00 +18°C° 0 mm 2 mps 732 mmHg 47%
    15:00 +18°C° 0 mm 3 mps 731 mmHg 47%
    16:00 +16°C° 0 mm 3 mps 731 mmHg 57%
    17:00 +13°C° 0 mm 3 mps 731 mmHg 66%
    18:00 +12°C° 0 mm 2 mps 732 mmHg 76%
    19:00 +10°C° 0 mm 2 mps 732 mmHg 82%
    20:00 +9°C° 0 mm 2 mps 732 mmHg 89%
    21:00 +9°C° 0 mm 1 mps 733 mmHg 95%
    22:00 +9°C° 0 mm 1 mps 733 mmHg 96%
    23:00 +9°C° 0 mm 1 mps 733 mmHg 96%

    25 March, Monday

    Time Temperature Precipitation Wind Pressure Humidity
    00:00 +8°C° 0 mm 2 mps 733 mmHg 97%
    01:00 +8°C° 0 mm 2 mps 733 mmHg 96%
    02:00 +8°C° 0 mm 2 mps 733 mmHg 95%
    03:00 +8°C° 0 mm 2 mps 733 mmHg 94%
    04:00 +8°C° 0.1 mm 2 mps 733 mmHg 94%
    05:00 +8°C° 0.1 mm 2 mps 733 mmHg 93%
    06:00 +7°C° 0.1 mm 2 mps 733 mmHg 93%
    07:00 +7°C° 0.1 mm 2 mps 733 mmHg 91%
    08:00 +7°C° 0.1 mm 3 mps 733 mmHg 90%
    09:00 +7°C° 0.1 mm 3 mps 733 mmHg 89%
    10:00 +8°C° 0 mm 3 mps 733 mmHg 84%
    11:00 +9°C° 0 mm 3 mps 733 mmHg 80%
    12:00 +10°C° 0 mm 3 mps 733 mmHg 75%
    13:00 +11°C° 0 mm 3 mps 733 mmHg 68%
    14:00 +12°C° 0 mm 4 mps 732 mmHg 61%
    15:00 +13°C° 0 mm 4 mps 732 mmHg 53%
    16:00 +12°C° 0 mm 4 mps 732 mmHg 56%
    17:00 +10°C° 0 mm 4 mps 732 mmHg 59%
    18:00 +8°C° 0 mm 4 mps 733 mmHg 62%
    19:00 +7°C° 0 mm 3 mps 733 mmHg 67%
    20:00 +5°C° 0 mm 3 mps 733 mmHg 72%
    21:00 +5°C° 0 mm 2 mps 734 mmHg 77%
    22:00 +4°C° 0 mm 2 mps 734 mmHg 80%
    23:00 +3°C° 0 mm 2 mps 734 mmHg 84%

    26 March, Tuesday

    Time Temperature Precipitation Wind Pressure Humidity
    00:00 +2°C° 0 mm 2 mps 734 mmHg 88%
    01:00 +2°C° 0 mm 2 mps 734 mmHg 89%
    02:00 +2°C° 0 mm 2 mps 734 mmHg 91%
    03:00 +1°C° 0 mm 2 mps 733 mmHg 92%
    04:00 +2°C° 0 mm 1 mps 733 mmHg 92%
    05:00 +2°C° 0 mm 1 mps 733 mmHg 92%
    06:00 +2°C° 0 mm 1 mps 733 mmHg 93%
    07:00 +3°C° 0 mm 2 mps 734 mmHg 81%
    08:00 +6°C° 0 mm 2 mps 734 mmHg 69%
    09:00 +8°C° 0 mm 3 mps 734 mmHg 56%
    10:00 +10°C° 0 mm 3 mps 734 mmHg 53%
    11:00 +11°C° 0 mm 4 mps 734 mmHg 49%
    12:00 +13°C° 0 mm 4 mps 733 mmHg 45%
    13:00 +13°C° 0 mm 5 mps 733 mmHg 45%
    14:00 +13°C° 0 mm 5 mps 733 mmHg 45%
    15:00 +14°C° 0 mm 5 mps 732 mmHg 45%
    16:00 +12°C° 0 mm 4 mps 732 mmHg 51%
    17:00 +11°C° 0 mm 4 mps 733 mmHg 57%
    18:00 +9°C° 0 mm 3 mps 733 mmHg 63%
    19:00 +8°C° 0 mm 3 mps 733 mmHg 69%
    20:00 +7°C° 0 mm 3 mps 733 mmHg 75%
    21:00 +5°C° 0 mm 2 mps 733 mmHg 81%
    22:00 +5°C° 0 mm 2 mps 733 mmHg 85%
    23:00 +4°C° 0 mm 2 mps 733 mmHg 89%
    Show more